Flag for Uruguay

Past Weather in Melo, Uruguay — Yesterday and Last 2 Weeks

Now
59 °F

Overcast.


Feels Like: 57 °F
Forecast: 68 / 57 °F
Wind: 13 mph from Southeast

Location: Bage Aeroporto
Current Time: Oct 21, 2020 at 5:03:49 am
Latest Report: Oct 21, 2020 at 4:00 am
Visibility: N/A
Pressure30.15 "Hg
Humidity: 88%
Dew Point: 55 °F
Location of MeloLocation

Past Weather in Melo — Graph

°F

Melo Temperature Yesterday

Maximum temperature yesterday: 79 °F (at 1:15 pm)
Minimum temperature yesterday: 61 °F (at 11:01 pm)
Average temperature yesterday: 68 °F

High & Low Weather Summary for the Past Weeks

 TemperatureHumidityPressure
High93 °F (Oct 19, 3:00 pm)100% (Oct 6, 4:00 am)30.21 "Hg (Oct 6, 4:00 am)
Low41 °F (Oct 10, 6:00 am)32% (Oct 19, 4:00 pm)29.77 "Hg (Oct 19, 3:00 am)
Average63 °F73%30.00 "Hg
* Reported Oct 6 4:00 am — Oct 21 4:00 am, Melo. Weather by CustomWeather, © 2020

Note: Actual official high and low records may vary slightly from our data, if they occured in-between our weather recording intervals... More about our weather records

Melo Weather History for the Previous 24 Hours

Scroll right to see more
 ConditionsComfort  
Time TempWeatherWind HumidityBarometerVisibility
4:00 am
Wed, Oct 21
59 °FOvercast.13 mph88%30.15 "HgN/A
3:00 am59 °FOvercast.14 mph88%30.15 "HgN/A
2:00 am59 °FOvercast.17 mph88%30.18 "HgN/A
1:13 am61 °FOvercast.18 mph83%30.18 "HgN/A
1:00 am61 °FOvercast.21 mph83%30.15 "HgN/A
12:00 am61 °FOvercast.21 mph83%30.15 "HgN/A
11:01 pm
Tue, Oct 20
61 °FOvercast.21 mph83%30.15 "HgN/A
10:00 pm63 °FMostly cloudy.20 mph77%30.15 "HgN/A
9:00 pm63 °FOvercast.18 mph83%30.15 "HgN/A
8:00 pm64 °FOvercast.20 mph78%30.12 "HgN/A
7:12 pm64 °FOvercast.21 mph83%30.12 "HgN/A
7:00 pm66 °FOvercast.18 mph78%30.12 "HgN/A
6:00 pm66 °FSunny.21 mph78%30.09 "Hg10 mi
5:04 pm68 °FOvercast.24 mph78%30.07 "HgN/A
5:00 pm70 °FScattered clouds.22 mph73%30.09 "HgN/A
4:00 pm73 °FPartly sunny.24 mph69%30.07 "HgN/A
3:00 pm77 °FScattered clouds.22 mph65%30.07 "HgN/A
2:00 pm79 °FScattered clouds.22 mph58%30.04 "HgN/A
1:15 pm79 °FScattered clouds.21 mph58%30.04 "HgN/A
1:00 pm77 °FScattered clouds.23 mph57%30.07 "HgN/A
12:00 pm73 °FPartly sunny.20 mph69%30.07 "HgN/A
11:00 am72 °FScattered clouds.20 mph69%30.09 "HgN/A
10:00 am70 °FOvercast.15 mph73%30.09 "HgN/A
9:00 am68 °FOvercast.18 mph78%30.09 "HgN/A
8:25 am66 °FOvercast.21 mph78%30.07 "HgN/A
8:00 am66 °FOvercast.15 mph83%30.07 "HgN/A
7:00 am64 °FOvercast.17 mph88%30.04 "HgN/A
6:00 am64 °FOvercast.18 mph88%29.98 "HgN/A
5:30 am64 °FPassing clouds.13 mph88%29.98 "HgN/A
5:19 am63 °FPassing clouds.15 mph94%29.98 "HgN/A
5:00 am64 °FClear.14 mph88%29.95 "Hg10 mi
Weather by CustomWeather, © 2020

See weather overview